Location: Dietmanns
(48.4667°N, 15.1500°E)
Time: 04:55:13
(UTC+00:00)

Daily predictions for brighter satellites

Satellite Brightness Start Highest point End
(mag) Time Altitude Azimuth Time Altitude Azimuth Time Altitude Azimuth
Cosmos 2278 Rocket 3.6 03:14:43 32° NNE 03:15:46 34° NE 03:20:55 10° ESE
COSMO-SKYMED 1 4.5 03:19:40 10° SE 03:22:20 28° E 03:22:20 28° E
Cosmos 2322 4.1 03:27:03 60° ENE 03:27:03 60° ENE 03:32:03 10° NNE
Cosmos 2333 Rocket 2.5 03:32:03 63° ESE 03:32:03 63° ESE 03:37:36 10° NNE
Cosmos 2219 Rocket 2.6 03:33:23 57° SE 03:33:47 58° ESE 03:39:16 10° NE
Lacrosse 5 rocket 3.5 03:36:14 23° ENE 03:36:14 23° ENE 03:38:00 10° E
Cosmos 1937 Rocket 4.4 03:40:30 37° NNE 03:42:02 47° ENE 03:47:05 10° SE
USA 215 3.7 03:41:15 10° ENE 03:47:21 44° N 03:48:02 43° NNW
GEOS 3 Rocket 3.7 03:44:27 10° SE 03:49:49 74° NE 03:50:25 67° N
COSMOS 2428 2.9 03:50:01 42° S 03:51:55 68° ESE 03:57:35 10° NNE
Cosmos 2333 4.2 03:54:44 67° NNW 03:54:44 67° NNW 03:59:48 10° NNE
Meteor 1-22 Rocket 4.2 03:58:11 71° WNW 03:58:11 71° WNW 04:03:59 10° N
IRIDIUM 104 4.3 03:52:51 10° S 03:58:03 81° E 04:03:18 10° N
SL-16 R/B 3.9 04:00:40 19° N 04:00:40 19° N 04:02:53 10° N
Cosmos 2360 Rocket 3.2 04:05:03 32° NNW 04:05:03 32° NNW 04:08:41 10° NNE
Cosmos 2322 Rocket 3.8 04:06:14 21° NNW 04:06:14 21° NNW 04:08:45 10° N
Cosmos 1455 Rocket 3.5 04:02:44 10° S 04:07:02 61° E 04:11:20 10° NNE
IRIDIUM 114 4.2 04:01:58 10° S 04:07:11 85° W 04:12:27 10° N
Cosmos 44 Rocket 3.5 04:08:17 54° NNW 04:09:26 76° NE 04:14:39 10° SE
Nadezhda 4 Rocket 4.5 04:03:27 10° N 04:09:30 58° ENE 04:15:31 10° SSE
SKYMED 2 3.6 04:07:06 10° SSE 04:10:54 69° S 04:10:54 69° S
ALOS 4.1 04:07:43 10° N 04:09:03 18° N 04:09:03 18° N
FENGYUN 3A 4.1 04:07:15 10° N 04:11:19 44° NNW 04:11:19 44° NNW
ADEOS 3.4 04:09:49 10° NNE 04:15:03 75° WNW 04:17:44 29° SSW
IRIDIUM 103 4.2 04:11:09 10° S 04:16:22 72° W 04:21:36 10° N
Cosmos 540 Rocket 4.5 04:12:58 10° S 04:17:50 46° ESE 04:22:45 10° NNE
ATLAS 5 CENTAUR R/B 2.9 04:19:14 28° SSE 04:19:14 28° SSE 04:21:27 10° SE
Cosmos 990 Rocket 3.9 04:19:24 58° WSW 04:19:24 58° WSW 04:24:20 10° S
MOS 1 Rocket 3.4 04:14:54 10° SSE 04:19:55 81° ENE 04:23:48 15° N
deb Chang Zheng 4 3.6 04:16:42 10° NNE 04:20:59 74° ESE 04:25:12 10° S
Cosmos 1953 3.1 04:19:13 10° S 04:23:04 52° E 04:26:58 10° NNE
Meteor PRIRODA 4.1 04:19:31 10° NNE 04:23:07 60° E 04:26:41 10° S
Meteor 2-10 4.0 04:17:47 10° SSW 04:23:26 80° W 04:28:56 10° N
ERS-2 2.6 04:20:43 10° SSE 04:23:28 50° S 04:23:28 50° S
Cosmos 1726 4.1 04:35:56 17° N 04:35:56 17° N 04:36:55 10° N
IRIDIUM 106 4.4 04:29:39 10° SSW 04:34:44 51° W 04:39:50 10° N
SL-8 R/B 4.0 04:34:40 44° WSW 04:35:38 52° SSW 04:40:19 10° SE
Cosmos 858 Rocket 4.4 04:33:37 30° NW 04:36:11 69° WSW 04:41:22 10° S
Cosmos 1602 Rocket 4.4 04:32:53 10° N 04:37:15 53° ENE 04:41:37 10° SSE
SJ-12 3.9 04:34:03 10° N 04:38:09 56° WNW 04:39:02 45° WSW
Cosmos 1461 3.1 04:35:33 23° SW 04:38:29 86° SE 04:43:17 10° NE
PSLV R/B 3.8 04:34:46 10° S 04:38:53 79° WSW 04:41:22 24° NNW
Cosmos 1689 Rocket 2.8 04:37:46 10° SSE 04:39:51 43° S 04:39:51 43° S
Cosmos 1763 Rocket 3.4 04:40:44 16° SW 04:44:52 61° WNW 04:50:05 10° NNE
Cosmos 1898 Rocket 3.9 04:48:06 34° WNW 04:49:10 38° WSW 04:53:55 10° S
Cosmos 2084 3.9 04:49:48 38° WNW 04:50:25 41° NW 04:54:34 10° NNE
Cosmos 841 Rocket 3.5 04:45:41 10° SSW 04:50:48 82° ESE 04:55:59 10° NNE
BREEZE-M DEB (TANK) 4.3 04:48:26 31° W 04:51:16 83° N 05:10:05 10° E
Cosmos 1758 4.3 04:54:43 28° NW 04:54:43 28° NW 04:57:16 10° N
Cosmos 2369 Rocket 4.1 04:49:53 10° N 04:54:25 24° NE 04:58:54 10° E
Cosmos 921 Rocket 3.2 04:53:25 29° WSW 04:55:04 44° WNW 04:59:08 10° N
NOSS 0 Rocket 3.8 04:49:49 10° SSW 04:56:01 83° WNW 05:02:15 10° NNE
Meteor 1-21 Rocket 4.2 04:51:12 10° NNW 04:56:51 63° W 05:02:33 10° S
Cosmos 1340 2.5 04:56:03 12° NNW 04:59:28 84° W 05:03:14 10° S
COSMO-SKYMED 1 3.4 04:55:57 10° SSW 04:59:34 29° W 04:59:34 29° W
Cosmos 2278 Rocket 2.4 04:56:36 22° NW 05:00:04 48° WSW 05:05:28 10° S
SL-16 R/B 3.9 04:55:01 10° S 05:00:04 35° ESE 05:05:09 10° NE
Cosmos 2298 Rocket 4.5 04:55:04 10° NNW 05:00:24 64° ENE 05:05:42 10° SE
CZ-4B R/B 2.9 04:58:05 10° N 05:01:31 43° WNW 05:05:00 10° SW
Cosmos 1703 3.1 04:58:17 10° NNW 05:02:11 75° W 05:06:04 10° S
Cosmos 1570 Rocket 4.0 04:58:29 10° SSW 05:03:42 86° ESE 05:08:59 10° NNE
Cosmos 1943 Rocket 3.3 05:02:21 10° NNW 05:07:44 42° NE 05:13:05 10° SE
Cosmos 1346 Rocket 3.7 05:04:30 10° N 05:08:23 50° ENE 05:12:15 10° SSE
SAR-Lupe-4 4.3 05:07:20 10° SSW 05:10:34 31° W 05:11:25 28° WNW
Cosmos 1464 Rocket 4.2 05:06:04 10° SW 05:11:52 44° WNW 05:17:44 10° N
Cosmos 2237 Rocket 2.1 05:06:49 10° SSW 05:12:30 77° WNW 05:18:14 10° NNE
Cosmos 2195 Rocket 4.5 05:06:13 10° N 05:12:33 87° W 05:18:46 10° S
CZ-2C R/B 2.7 05:07:30 10° SSE 05:12:43 80° ENE 05:18:04 10° NNW
Lacrosse 5 rocket 1.3 05:11:53 27° WNW 05:13:47 58° SW 05:17:26 10° SE
H-2A R/B 3.0 05:11:22 10° N 05:14:52 41° WNW 05:18:22 10° SW
Lacrosse 4 Rocket 2.7 05:12:16 10° S 05:16:18 45° ESE 05:20:27 10° NE
Cosmos 2333 Rocket 3.1 05:14:07 20° W 05:16:42 28° NW 05:21:33 10° NNE
Cosmos 1544 Rocket 3.9 05:13:59 10° SW 05:18:01 38° WNW 05:22:06 10° N
Cosmos 2219 Rocket 3.0 05:15:11 19° W 05:18:05 29° NW 05:22:57 10° NNE
Cosmos 2208 Rocket 4.0 05:18:08 10° SSW 05:23:36 80° WNW 05:29:04 10° NNE
Cosmos 1937 Rocket 4.4 05:20:43 17° NW 05:23:44 28° W 05:28:07 10° SSW
Cosmos 1125 Rocket 3.9 05:18:26 10° NNW 05:23:44 68° ENE 05:29:02 10° SSE
BREEZE-M DEB (TANK) 4.0 05:20:10 16° WNW 05:26:00 35° SW 05:29:13 10° SSE
Cosmos 372 Rocket 4.3 05:21:02 10° NNW 05:26:05 48° WSW 05:31:05 10° S
Cosmos 1428 Rocket 4.5 05:20:42 10° N 05:27:02 83° W 05:33:16 10° S
Cosmos 1814 Rocket 3.9 05:23:00 10° SSW 05:28:06 68° WNW 05:33:14 10° NNE
Envisat 3.0 05:23:21 10° N 05:28:20 58° WNW 05:33:18 10° SSW
Cosmos 2084 Rocket 3.7 05:25:15 13° NW 05:29:07 72° NE 05:33:36 10° SE
Cosmos 1328 3.9 05:25:41 10° NNW 05:29:31 50° W 05:33:18 10° S
USA 215 3.8 05:23:30 10° E 05:29:40 47° NNE 05:35:23 12° WNW
Cosmos 1606 Rocket 4.3 05:26:59 10° S 05:31:11 55° E 05:35:25 10° NNE
Cosmos 1400 Rocket 3.0 05:27:25 10° SSW 05:31:25 53° WNW 05:35:29 10° N
CZ-4 R/B 4.5 05:29:11 10° NE 05:31:34 16° E 05:33:56 10° SE
Cosmos 2297 3.8 05:26:02 10° NNW 05:31:50 87° ENE 05:37:35 10° SSE
NOAA 6 4.0 05:28:05 10° N 05:33:17 72° WNW 05:38:26 10° SSW
Cosmos 1626 Rocket 4.3 05:30:43 10° NNW 05:34:40 31° W 05:38:37 10° SSW
FALCON 9 DEB 3.1 05:31:35 10° WSW 05:35:00 86° SSE 05:38:25 10° ENE
COSMOS 2428 3.7 05:32:07 11° W 05:36:43 27° NW 05:41:29 10° NNE
PSLV R/B 4.1 05:33:12 10° N 05:36:58 44° WNW 05:40:47 10° SW
SL-4 R/B 3.6 05:33:58 10° SSW 05:37:30 35° SE 05:41:18 10° ENE
Cosmos 1092 Rocket 4.1 05:31:48 10° NNW 05:37:45 53° W 05:43:42 10° SSW
YAOGAN 6 3.3 05:34:38 10° N 05:38:00 34° WNW 05:41:22 10° SW
SL-19 R/B 4.3 05:36:35 10° N 05:40:47 63° WNW 05:44:21 10° SSW
Cosmos 2228 3.2 05:36:38 10° S 05:40:53 78° E 05:45:07 10° NNE
NOAA 11 4.4 05:36:33 10° NNE 05:42:03 77° ESE 05:47:30 10° S
MOS 1-B 4.3 05:38:54 10° NNE 05:44:41 73° WNW 05:50:25 10° SSW
Cosmos 1980 4.0 05:40:07 10° SW 05:45:31 44° NW 05:50:57 10° NNE
Cosmos 2292 Rocket 3.3 05:44:17 10° N 05:47:13 55° E 05:50:13 10° SSE
Cosmos 1300 2.6 05:43:54 10° SSW 05:47:41 77° W 05:51:32 10° N
Cosmos 2360 Rocket 4.0 05:47:10 10° NW 05:49:06 12° NNW 05:51:02 10° N
Cosmos 2279 Rocket 4.1 05:44:39 10° S 05:50:53 84° E 05:57:11 10° N
H-2A R/B 2.7 05:46:57 10° N 05:51:22 60° WNW 05:55:48 10° SSW
Cosmos 972 Rocket 4.4 05:47:55 10° SSW 05:54:24 72° WNW 06:00:12 10° NNE
ATLAS CENTAUR R/B 1.2 05:52:39 10° SW 05:56:20 82° SE 06:00:01 10° NE
Cosmos 1758 Rocket 4.0 05:52:38 10° NNW 05:56:55 44° W 06:01:09 10° SSW
NOSS 3-2 (A) 3.6 05:51:41 10° SSW 05:57:22 79° SE 06:03:57 10° NE
CZ-4B DEB 4.4 05:52:06 10° N 05:57:28 50° WNW 06:02:47 10° SW
Cosmos 1408 4.0 05:54:29 10° N 05:57:53 40° ENE 06:01:17 10° SSE
Cosmos 540 Rocket 4.3 05:55:12 10° WSW 05:59:38 29° NW 06:04:08 10° N
Cosmos 1953 3.9 05:57:22 10° WSW 05:59:49 15° WNW 06:02:15 10° NNW
CZ-2D R/B 4.1 05:56:41 10° NNE 06:00:27 54° E 06:04:10 10° S
Okean O Rocket 1.6 05:57:01 10° N 06:01:23 68° WNW 06:05:41 10° SSW
BREEZE-M DEB (TANK) 3.8 05:57:42 10° WSW 06:01:25 77° SSE 06:15:35 10° ENE
Cosmos 2058 Rocket 3.8 05:59:27 10° S 06:03:44 60° E 06:08:07 10° NNE
Cosmos 1634 Rocket 4.1 05:59:28 10° SSW 06:05:27 51° WNW 06:11:29 10° N
NOSS 3-2 (C) 4.2 06:01:22 10° SSW 06:06:54 59° ESE 06:13:16 10° NE
SMAP 3.4 06:07:09 10° N 06:11:33 42° WNW 06:15:56 10° SW
